User: anonymous   Login
Location: Caltech
(34.1382°N, 118.1253°W)
Time: 05:40:00
(UTC-07:00)
Language:

Cosmos 2251 Rocket - Orbit

View from above orbital plane
View from above orbital plane
View from above satellite
View from above satellite

Ground track
Ground track

The orbit data is extracted from the following two-line orbital elements,

1 22676U 93036B   14297.79889850  .00000192  00000-0  78311-4 0  3564
2 22676 074.0419 149.0119 0018219 050.1606 310.1145 14.33665125116834
Epoch (UTC): 24 October 2014 19:10:24
Eccentricity: 0.0018219
inclination: 74.0419°
perigee height: 766 km
apogee height: 792 km
right ascension of ascending node: 149.0119°
argument of perigee: 50.1606°
revolutions per day: 14.33665125
mean anomaly at epoch: 310.1145°
orbit number at epoch: 11683

The dashed part of the orbit path shows where the satellite is in the earth's shadow,  

DLR